map of BVB home
Great Circle Mapper logo
BVB - Airport
Location
City:  Boa Vista, Roraima, Brazil
ICAO / IATA:SBBV / BVB

Details
Type:Airport (Aerodrome, Airfield)
Use:Public/Civil, International (customs port of entry)
Latitude:250'47"N (2.846311)
Longitude:6041'24"W (-60.690068)
Datum:WGS 1984
Elevation:276 ft (84 m)
Runways:1
Longest:8858 × 148 ft (2700 × 45 m), paved

Time
Time Zone:UTC-4
Local Time:

Weather
METAR:SBBV 222100Z 29006KT 9999 FEW035 FEW040TCU BKN070 30/22 Q1007
TAF:SBBV 220400Z 2206/2306 08003KT 9999 FEW030 TN22/2209Z TX31/2218Z
BECMG 2211/2213 06010KT
BECMG 2218/2220 12010KT SCT030 FEW040TCU PROB30 22 19/2221 17005KT 8000 SHRA SCT035 FEW040TCU
BECMG 2222/2224 16005KT SCT040 BE CMG 2302/2304 08003KT CAVOK
RMK PEN

Related Locations
Nearby:
Farthest:TTR: 12415 mi / 19981 km
Tana Toraja [Pongtiku], Sulawesi Island, ID

Find:

   beyond  
but within

Other Information
Maps:
NOTAMs:
Links:
Sources:

  
flag of Brazil
flag of Roraima
  

Sectional Chart

Flight Planning
at skyvector.com

Satellite Image

Google Maps Satellite View

 

Copyright © 2004-2014 Karl L. Swartz. All rights reserved.
The Great Circle Mapper name and logo are trademarks of the Great Circle Mapper.
All other trademarks mentioned herein belong to their respective owners.
Please see credits for attibutions and further copyright information.

  Follow gcmap on Facebook Follow gcmap on Twitter

hCard Microformat

Geo Microformat